Location: Pilipovskiye Korichintsy
(49.1833°N, 27.4667°E)
Time: 22:43:08
(UTC+00:00)

Abrixas rocket - Pass Details

Date: 14 July 2020
Orbit: 338 x 346 km, 48.4° (Epoch: 10 August)

Event Time Altitude Azimuth Distance (km) Brightness Sun altitude
Exits shadow 00:02:52 26° 266° (W) 707 3.1 -15.3°
Maximum altitude 00:04:15 66° 190° (S) 373 1.7 -15.2°
Drops below altitude 10° 00:07:05 10° 107° (ESE) 1,280 4.8 -15.0°
Sets 00:09:06 0° 104° (ESE) 2,117 6.0 -14.8°
